AAL638 KMIA-KRDU

Flight info

Callsign AAL638
Flight time N/A
Altitude 35000
Route ALTNN2 DUCEN Q87 VIYAP OLBEC Q69 GURGE PETTO DMSTR2
Aircraft B738/M-VGDW/C

Departure

Time 2026-05-06 22:37
Airport Miami International Airport (KMIA)

Arrival

Time N/A
Airport Raleigh-Durham International Airport (KRDU)
Time Latitude Longitude Altitude Speed Heading
2026-05-06 22:18 25.79734 -80.28303 12 ft 0 kts
2026-05-06 22:27 25.79732 -80.28304 12 ft 2 kts
2026-05-06 22:27 25.79717 -80.28304 12 ft 2 kts
2026-05-06 22:27 25.79702 -80.28304 12 ft 2 kts
2026-05-06 22:28 25.79689 -80.28304 12 ft 0 kts
2026-05-06 22:28 25.79679 -80.28303 12 ft 1 kts 320°
2026-05-06 22:28 25.79674 -80.28293 12 ft 0 kts 272°
2026-05-06 22:28 25.79674 -80.28286 12 ft 1 kts 266°
2026-05-06 22:29 25.79674 -80.28284 12 ft 0 kts 267°
2026-05-06 22:30 25.79674 -80.28298 12 ft 11 kts 268°
2026-05-06 22:30 25.79673 -80.28333 12 ft 3 kts 268°
2026-05-06 22:30 25.79670 -80.28406 12 ft 10 kts 268°
2026-05-06 22:31 25.79666 -80.28487 12 ft 9 kts 263°
2026-05-06 22:31 25.79654 -80.28560 12 ft 10 kts 260°
2026-05-06 22:31 25.79647 -80.28662 12 ft 13 kts 266°
2026-05-06 22:31 25.79637 -80.28760 12 ft 12 kts 256°
2026-05-06 22:32 25.79586 -80.28816 12 ft 9 kts 222°
2026-05-06 22:32 25.79577 -80.28828 12 ft 3 kts 236°
2026-05-06 22:32 25.79558 -80.28879 12 ft 6 kts 203°
2026-05-06 22:32 25.79500 -80.28925 12 ft 11 kts 279°
2026-05-06 22:33 25.79533 -80.29021 12 ft 14 kts 300°
2026-05-06 22:33 25.79595 -80.29140 12 ft 23 kts 300°
2026-05-06 22:33 25.79673 -80.29295 12 ft 22 kts 300°
2026-05-06 22:33 25.79749 -80.29442 12 ft 21 kts 300°
2026-05-06 22:34 25.79821 -80.29583 12 ft 20 kts 300°
2026-05-06 22:34 25.79889 -80.29718 12 ft 19 kts 296°
2026-05-06 22:34 25.79940 -80.29845 12 ft 16 kts 296°
2026-05-06 22:34 25.79977 -80.29963 12 ft 17 kts 287°
2026-05-06 22:35 25.80016 -80.30102 12 ft 14 kts 306°
2026-05-06 22:35 25.80071 -80.30088 12 ft 7 kts 75°
2026-05-06 22:35 25.80073 -80.30062 12 ft 0 kts 87°
2026-05-06 22:35 25.80073 -80.30061 12 ft 0 kts 87°
2026-05-06 22:36 25.80074 -80.30055 12 ft 3 kts 87°
2026-05-06 22:36 25.80085 -80.29771 12 ft 81 kts 88°
2026-05-06 22:36 25.80125 -80.28828 14 ft 161 kts 88°
2026-05-06 22:36 25.80170 -80.27453 526 ft 189 kts 90°
2026-05-06 22:37 25.80199 -80.25978 1454 ft 200 kts 87°
2026-05-06 22:37 25.80278 -80.24459 2235 ft 205 kts 86°
2026-05-06 22:37 25.80363 -80.22819 2781 ft 222 kts 86°
2026-05-06 22:37 25.80451 -80.21038 3329 ft 242 kts 85°
2026-05-06 22:38 25.80796 -80.19132 3886 ft 262 kts 67°
2026-05-06 22:38 25.81840 -80.17491 4706 ft 269 kts 41°
2026-05-06 22:38 25.83396 -80.16362 5626 ft 272 kts 25°
2026-05-06 22:38 25.85218 -80.15762 6518 ft 274 kts
2026-05-06 22:39 25.87108 -80.15647 7245 ft 276 kts
2026-05-06 22:39 25.89023 -80.15697 7930 ft 279 kts 354°
2026-05-06 22:39 25.90921 -80.16190 8655 ft 280 kts 344°
2026-05-06 22:39 25.92782 -80.16851 9291 ft 283 kts 343°
2026-05-06 22:40 25.94655 -80.17526 9965 ft 286 kts 344°
2026-05-06 22:40 25.96543 -80.18198 10919 ft 288 kts 345°
2026-05-06 22:40 25.98496 -80.18870 11538 ft 299 kts 347°
2026-05-06 22:40 26.00593 -80.19334 12060 ft 314 kts 354°
2026-05-06 22:41 26.05112 -80.19757 13193 ft 340 kts 358°
2026-05-06 22:41 26.07531 -80.19946 13643 ft 356 kts 357°
2026-05-06 22:41 26.10064 -80.20167 14059 ft 372 kts 356°
2026-05-06 22:42 26.12682 -80.20418 14462 ft 386 kts 356°
2026-05-06 22:42 26.15414 -80.20694 15089 ft 394 kts 355°
2026-05-06 22:42 26.18144 -80.20976 15776 ft 398 kts 355°
2026-05-06 22:42 26.20934 -80.21262 16477 ft 402 kts 355°
2026-05-06 22:43 26.23723 -80.21528 17169 ft 405 kts 355°
2026-05-06 22:43 26.26548 -80.21782 17833 ft 409 kts 355°
2026-05-06 22:43 26.29390 -80.22031 18530 ft 412 kts 354°
2026-05-06 22:43 26.32284 -80.22283 19145 ft 417 kts 354°
2026-05-06 22:44 26.35160 -80.22535 19781 ft 420 kts 354°
2026-05-06 22:44 26.38109 -80.22796 20436 ft 423 kts 353°
2026-05-06 22:44 26.41063 -80.23074 21087 ft 426 kts 353°
2026-05-06 22:44 26.44023 -80.23371 21676 ft 430 kts 352°
2026-05-06 22:45 26.47016 -80.23682 22297 ft 432 kts 352°
2026-05-06 22:45 26.50027 -80.23998 22873 ft 436 kts 352°
2026-05-06 22:45 26.53028 -80.24312 23404 ft 440 kts 352°
2026-05-06 22:45 26.56124 -80.24637 23941 ft 444 kts 352°
2026-05-06 22:46 26.59179 -80.25011 24461 ft 447 kts 350°
2026-05-06 22:46 26.62294 -80.25492 25011 ft 449 kts 349°
2026-05-06 22:46 26.65379 -80.26027 25522 ft 452 kts 348°
2026-05-06 22:46 26.68487 -80.26614 26000 ft 455 kts 346°
2026-05-06 22:47 26.71620 -80.27474 26119 ft 464 kts 341°
2026-05-06 22:47 26.74712 -80.28587 26472 ft 468 kts 339°
2026-05-06 22:47 26.77734 -80.29813 27391 ft 459 kts 337°
2026-05-06 22:47 26.80675 -80.31057 28420 ft 449 kts 336°
2026-05-06 22:48 26.83546 -80.32288 29377 ft 440 kts 336°
2026-05-06 22:48 26.86396 -80.33514 30004 ft 438 kts 336°
2026-05-06 22:48 26.89246 -80.34739 30552 ft 438 kts 336°
2026-05-06 22:48 26.92073 -80.35948 31102 ft 437 kts 336°
2026-05-06 22:49 26.94906 -80.37154 31702 ft 435 kts 336°
2026-05-06 22:49 26.97763 -80.38344 32285 ft 433 kts 336°
2026-05-06 22:49 27.00578 -80.39488 32822 ft 431 kts 337°
2026-05-06 22:49 27.03427 -80.40636 33400 ft 430 kts 337°
2026-05-06 22:50 27.06232 -80.41763 33980 ft 428 kts 336°
2026-05-06 22:50 27.09044 -80.42893 34575 ft 425 kts 336°
2026-05-06 22:50 27.11848 -80.44056 35013 ft 425 kts 335°
2026-05-06 22:51 27.17361 -80.46474 35051 ft 425 kts 335°
2026-05-06 22:51 27.22856 -80.48930 35052 ft 421 kts 334°
2026-05-06 22:52 27.28320 -80.51369 35051 ft 422 kts 334°
2026-05-06 22:52 27.33782 -80.53805 35048 ft 422 kts 334°
2026-05-06 22:53 27.39268 -80.56196 35052 ft 423 kts 336°
2026-05-06 22:53 27.44795 -80.58395 35056 ft 423 kts 336°
2026-05-06 22:54 27.50369 -80.60564 35057 ft 423 kts 336°
2026-05-06 22:54 27.55951 -80.62746 35033 ft 422 kts 336°
2026-05-06 22:55 27.61497 -80.64940 35051 ft 423 kts 336°
2026-05-06 22:55 27.67028 -80.67150 35049 ft 422 kts 336°
2026-05-06 22:56 27.72581 -80.69371 35047 ft 422 kts 335°
2026-05-06 22:56 27.78097 -80.71579 35043 ft 421 kts 335°
2026-05-06 22:57 27.83651 -80.73800 35039 ft 422 kts 335°
2026-05-06 22:57 27.89156 -80.76005 35041 ft 421 kts 335°
2026-05-06 22:58 27.94694 -80.78225 35036 ft 421 kts 335°
2026-05-06 22:58 28.00248 -80.80457 35041 ft 421 kts 335°
2026-05-06 22:59 28.05775 -80.82678 35046 ft 421 kts 335°
2026-05-06 22:59 28.11261 -80.84885 35044 ft 420 kts 335°
2026-05-06 23:00 28.16773 -80.87103 35043 ft 421 kts 335°
2026-05-06 23:00 28.22278 -80.89324 35045 ft 421 kts 335°
2026-05-06 23:01 28.27824 -80.91566 35045 ft 419 kts 335°
2026-05-06 23:01 28.33301 -80.93780 35044 ft 420 kts 335°
2026-05-06 23:02 28.38846 -80.96018 35052 ft 420 kts 335°
2026-05-06 23:02 28.44321 -80.98235 35050 ft 418 kts 335°
2026-05-06 23:03 28.49840 -81.00475 35049 ft 419 kts 335°
2026-05-06 23:03 28.55313 -81.02698 35051 ft 419 kts 335°
2026-05-06 23:04 28.60813 -81.04932 35049 ft 419 kts 335°
2026-05-06 23:04 28.66319 -81.07172 35047 ft 418 kts 335°
2026-05-06 23:05 28.71773 -81.09392 35043 ft 419 kts 335°
2026-05-06 23:05 28.77278 -81.11636 35043 ft 418 kts 335°
2026-05-06 23:06 28.82762 -81.13875 35040 ft 418 kts 335°
2026-05-06 23:06 28.88241 -81.16112 35043 ft 418 kts 334°
2026-05-06 23:07 28.93698 -81.18346 35041 ft 417 kts 335°
2026-05-06 23:07 28.99184 -81.20592 35043 ft 417 kts 334°
2026-05-06 23:08 29.04648 -81.22831 35042 ft 416 kts 334°
2026-05-06 23:08 29.10104 -81.25073 35042 ft 416 kts 334°
2026-05-06 23:09 29.15574 -81.27320 35042 ft 417 kts 334°
2026-05-06 23:09 29.21017 -81.29559 35041 ft 414 kts 334°
2026-05-06 23:10 29.26530 -81.31677 35041 ft 420 kts 339°
2026-05-06 23:10 29.32346 -81.32752 35038 ft 429 kts 348°
2026-05-06 23:11 29.38349 -81.33118 35040 ft 430 kts 350°
2026-05-06 23:11 29.44294 -81.33381 35036 ft 431 kts 350°
2026-05-06 23:12 29.50320 -81.33676 35034 ft 430 kts 350°
2026-05-06 23:12 29.56297 -81.33997 35032 ft 427 kts 350°
2026-05-06 23:13 29.62248 -81.34338 35027 ft 430 kts 349°
2026-05-06 23:13 29.68197 -81.34687 35026 ft 428 kts 349°
2026-05-06 23:14 29.74181 -81.35041 35022 ft 428 kts 349°
2026-05-06 23:14 29.80111 -81.35391 35025 ft 426 kts 349°
2026-05-06 23:15 29.86069 -81.35744 35030 ft 428 kts 349°
2026-05-06 23:15 29.91998 -81.36093 35033 ft 426 kts 349°
2026-05-06 23:16 29.97967 -81.36448 35031 ft 429 kts 349°
2026-05-06 23:16 30.04002 -81.36821 35030 ft 440 kts 349°
2026-05-06 23:17 30.10134 -81.37190 35029 ft 439 kts 349°
2026-05-06 23:17 30.16233 -81.37544 35030 ft 440 kts 349°
2026-05-06 23:18 30.22346 -81.37904 35034 ft 438 kts 349°
2026-05-06 23:18 30.28475 -81.38271 35035 ft 441 kts 349°
2026-05-06 23:19 30.34604 -81.38644 35028 ft 440 kts 349°
2026-05-06 23:19 30.40726 -81.39006 35026 ft 441 kts 349°
2026-05-06 23:20 30.46866 -81.39373 35029 ft 443 kts 349°
2026-05-06 23:20 30.52984 -81.39712 35027 ft 441 kts 349°
2026-05-06 23:21 30.59131 -81.40031 35027 ft 442 kts 349°
2026-05-06 23:21 30.65275 -81.40349 35027 ft 440 kts 349°
2026-05-06 23:22 30.71433 -81.40671 35025 ft 442 kts 349°
2026-05-06 23:22 30.77584 -81.40998 35021 ft 443 kts 349°
2026-05-06 23:23 30.83740 -81.41325 35011 ft 443 kts 349°
2026-05-06 23:23 30.89925 -81.41657 35003 ft 444 kts 349°
2026-05-06 23:24 30.96060 -81.41981 35010 ft 442 kts 349°
2026-05-06 23:24 31.02261 -81.42313 35008 ft 444 kts 349°
2026-05-06 23:25 31.08434 -81.42643 35015 ft 444 kts 349°
2026-05-06 23:25 31.14581 -81.42967 35018 ft 444 kts 348°
2026-05-06 23:26 31.20776 -81.43298 35017 ft 444 kts 348°
2026-05-06 23:26 31.26950 -81.43618 35020 ft 444 kts 349°
2026-05-06 23:27 31.33163 -81.43742 35019 ft 446 kts 351°
2026-05-06 23:27 31.39378 -81.43771 35014 ft 447 kts 351°
2026-05-06 23:28 31.45618 -81.43628 35003 ft 454 kts 355°
2026-05-06 23:28 31.51897 -81.42228 34996 ft 469 kts
2026-05-06 23:29 31.58104 -81.39809 34998 ft 474 kts 10°
2026-05-06 23:29 31.64361 -81.37125 34997 ft 476 kts 11°
2026-05-06 23:30 31.70556 -81.34475 34996 ft 475 kts 10°
2026-05-06 23:30 31.76786 -81.31854 35002 ft 473 kts 10°
2026-05-06 23:31 31.82993 -81.29274 34998 ft 476 kts
2026-05-06 23:31 31.89251 -81.26688 35007 ft 472 kts
2026-05-06 23:32 31.95488 -81.24341 35006 ft 468 kts
2026-05-06 23:32 32.01819 -81.23223 35011 ft 450 kts 354°
2026-05-06 23:33 32.08035 -81.22910 35008 ft 448 kts 352°
2026-05-06 23:33 32.14314 -81.22720 35014 ft 450 kts 352°
2026-05-06 23:34 32.20576 -81.22478 35009 ft 449 kts 352°
2026-05-06 23:34 32.26848 -81.22189 35007 ft 449 kts 352°
2026-05-06 23:35 32.33114 -81.21889 35002 ft 451 kts 353°
2026-05-06 23:35 32.39395 -81.21575 35000 ft 449 kts 353°
2026-05-06 23:36 32.45653 -81.21258 34994 ft 449 kts 352°
2026-05-06 23:36 32.51934 -81.20763 34989 ft 456 kts 356°
2026-05-06 23:37 32.58231 -81.19785 34988 ft 456 kts 358°
2026-05-06 23:37 32.64518 -81.18683 34986 ft 462 kts 359°
2026-05-06 23:38 32.70881 -81.17580 34986 ft 455 kts 358°
2026-05-06 23:38 32.77153 -81.16509 34980 ft 459 kts 358°
2026-05-06 23:39 32.83504 -81.15484 34981 ft 456 kts 358°
2026-05-06 23:39 32.89817 -81.14494 34985 ft 458 kts 357°